User: anonymous   Login
Location: Cheching
(60.0667°N, 164.2167°W)
Time: 09:46:18
(UTC+00:00)
Language:

METEOR M2 - Orbit

View from above orbital plane
View from above orbital plane
View from above satellite
View from above satellite

Ground track
Ground track

The orbit data is extracted from the following two-line orbital elements,

1 40069U 14037A   21169.49166607 -.00000040  00000-0  97179-6 0  9996
2 40069  98.4593 198.3421 0004683 308.9276  51.1485 14.20684754360186
Epoch (UTC): 18 June 2021 11:47:59
Eccentricity: 0.0004683
inclination: 98.4593°
perigee height: 819 km
apogee height: 826 km
right ascension of ascending node: 198.3421°
argument of perigee: 308.9276°
revolutions per day: 14.20684754
mean anomaly at epoch: 51.1485°
orbit number at epoch: 36018

The dashed part of the orbit path shows where the satellite is in the earth's shadow,  

DLR